星链-2235 (STARLINK-2235 )

导读 | 豆包AI

STARLINK-2235是美国SpaceX星链卫星互联网项目中的卫星,于2021年5月15日发射入轨,属于星链低轨卫星星座的组成部分。星链系统通过部署大量低轨卫星,旨在为全球提供高速互联网接入服务,该卫星的发射进一步扩充了星链星座的规模,提升系统的覆盖与服务能力,也引发了有关天文观测和轨道空间资源的相关讨论。

基本信息
目录编号:
48581
目录名称:
STARLINK-2235
国际标识:
2021-041AE
轨道中心:
EARTH
卫星名称:
星链-2235
卫星全名:
星链-2235 (STARLINK-2235 )
卫星状态:
在轨 (已飞行1811 天)
发射日期:
2021-05-15 UTC
国别 :
美国 (US)
星等 :
--
轨道信息
数据来源 国际轨道数据
星历时间: 2026-04-30T12:00:01+0800
8小时前
查看轨道信息
半长轴: 6863.364km
偏心率: 0.0001818
轨道倾角: 53.139°
近地点辐角 82.163°
升交点赤经 224.433°
平近点角 12.193°
近地点: 483.979km
远地点: 486.475km
周期: 94.312分钟
每日圈数: 15.26853
详细信息
固有亮度:
5
最大亮度:
2.5
卫星平台:
Starlink V1.0
覆盖范围:
全球
运营商:
太空探索技术公司
运营商所在国:
美国
制造商(研发单位):
太空探索技术公司
制造商所在国:
美国
使用方式:
暂无
卫星简介
星链(Starlink)计划是由太空探索技术公司(SpaceX)提出的一个巨型低轨卫星互联网星座项目,计划在2019年至2024年间在太空搭建由约1.2万颗卫星组成的“星链”网络,其中1584颗将部署在地球上空550千米处的近地轨道,并从2020年开始工作。该卫星仍在工作。
2D轨道图
3D轨道图
轨道高度分析图
轨道倾角分析图
轨道综合分析图
查看轨道综合分析图